1315612829762,1.96660
1315612889762,1.95625
1315612949762,1.96750
1315613009762,1.94720
1315613069762,1.95769
1315613129762,1.96097
1315613189762,1.96822
1315613249762,1.96303
1315613309762,1.95831
1315613369762,1.96224
1315613429762,1.95526
1315613489762,1.96388
1315613549762,1.96554
1315613609762,1.94433
1315613669762,1.95259
1315613729762,1.95892
1315613789762,1.95642
1315613849762,1.96026
1315613909762,1.97183
1315613969762,1.97099
1315614029762,1.95703
1315614089762,1.98509
1315614149762,1.97184
1315614209762,1.95640
1315614269762,1.95938
1315614329762,1.96948
1315614389762,1.95958
1315614449762,1.99542
1315614509762,1.97465
1315614569762,1.97419
1315614629762,1.95371
1315614689762,1.95555
1315614749762,1.98259
1315614809762,1.98432
1315614869762,1.96535
1315614929762,1.99102
1315614989762,1.96060
1315615049762,1.95782
1315615109762,1.95473
1315615169762,1.96875
1315615229762,1.94849
1315615289762,1.97863
1315615349762,1.96036
1315615409762,1.96083
1315615469762,1.95824
1315615529762,1.96380
1315615589762,1.96762
1315615649762,1.96365
1315615709762,1.98894
1315615769762,1.97558
1315615829762,1.99082
1315615889762,1.96629
1315615949762,1.97865
1315616009762,1.97221
1315616069762,1.97370
1315616129762,1.97892
1315616189762,1.98570
1315616249762,1.98802
1315616309762,1.96904
1315616369762,1.98937
1315616429774,1.97389
1315616489774,1.97201
1315616549774,1.97507
1315616609774,1.98241
1315616669774,1.97152
1315616729774,1.97869
1315616789774,1.98349
1315616849774,1.98771
1315616909774,1.98513
1315616969774,1.98091
1315617029774,1.99265
1315617089774,1.98472
1315617149774,1.97794
1315617209774,1.97077
1315617269774,1.97885
1315617329774,1.97052
1315617389774,1.98870
1315617449774,1.97867
1315617509774,1.96855
1315617569774,1.97116
1315617629774,1.98301
1315617689774,1.99461
1315617749774,1.98374
1315617809774,1.99744
1315617869774,1.98715
1315617929774,1.94873
1315617989774,1.97719
1315618049774,1.99329
1315618109774,1.96475
1315618169774,1.99741
1315618229774,1.97227
1315618289774,1.98468
1315618349774,1.97356
1315618409774,1.98387
1315618469774,1.99228
1315618529774,1.98541
1315618589774,1.98932
1315618649774,1.98247
1315618709774,1.98490
1315618769774,1.97036
1315618829774,1.99422
1315618889774,1.99329
1315618949774,1.99094
1315619009774,1.98813
1315619069774,1.97672
1315619129774,1.98727
1315619189774,1.98618
1315619249774,1.98857
1315619309774,1.97783
1315619369774,1.98084
1315619429774,1.97705
1315619489774,1.98290
1315619549774,1.98801
1315619609774,1.99620
1315619669774,1.99503
1315619729774,1.97657
1315619789774,2.00310
1315619849774,1.98958
1315619909774,1.97140
1315619969774,1.97702
1315620029786,2.00426
1315620089786,1.99117
1315620149786,1.97679
1315620209786,1.98929
1315620269786,1.97088
1315620329786,1.98005
1315620389786,2.00100
1315620449786,1.99364
1315620509786,1.98519
1315620569786,1.97832
1315620629786,1.98255
1315620689786,1.98570
1315620749786,1.98322
1315620809786,1.99193
1315620869786,2.00675
1315620929786,1.97705
1315620989786,1.98451
1315621049786,1.99839
1315621109786,2.00864
1315621169786,2.00159
1315621229786,1.99087
1315621289786,1.99969
1315621349786,1.99025
1315621409786,2.00333
1315621469786,1.99700
1315621529786,1.98125
1315621589786,2.01126
1315621649786,1.98451
1315621709786,2.00629
1315621769786,1.99934
1315621829786,2.00277
1315621889786,2.00312
1315621949786,2.00647
1315622009786,2.00481
1315622069786,2.00505
1315622129786,2.01126
1315622189786,1.99864
1315622249786,2.00093
1315622309786,2.00512
1315622369786,1.99268
1315622429786,2.00194
1315622489786,1.98742
1315622549786,2.01123
1315622609786,2.00310
1315622669786,1.99489
1315622729786,1.99982
1315622789786,2.00789
1315622849786,2.00328
1315622909786,2.00024
1315622969786,1.99322
1315623029786,1.99852
1315623089786,1.98702
1315623149786,1.99734
1315623209786,2.00297
1315623269786,1.99114
1315623329786,2.00626
1315623389786,2.00105
1315623449786,2.00666
1315623509786,1.98923
1315623569786,1.98462
1315623629798,1.96604
1315623689798,1.97557
1315623749798,1.97932
1315623809798,1.99316
1315623869798,1.98968
1315623929798,1.99187
1315623989798,1.99922
1315624049798,1.99362
1315624109798,2.00336
1315624169798,1.98865
1315624229798,2.00613
1315624289798,1.99103
1315624349798,1.99709
1315624409798,1.92846
1315624469798,1.99247
1315624529798,1.99234
1315624589798,1.98155
1315624649798,1.98157
1315624709798,1.99478
1315624769798,1.99078
1315624829798,1.99736
1315624889798,1.98524
1315624949798,2.00762
1315625009798,1.99640
1315625069798,2.01387
1315625129798,1.99070
1315625189798,2.03218
1315625249798,1.99039
1315625309798,1.99266
1315625369798,2.00050
1315625429798,1.99727
1315625489798,1.98540
1315625549798,1.98915
1315625609798,2.01501
1315625669798,1.99667
1315625729798,1.99848
1315625789798,1.99674
1315625849798,1.99188
1315625909798,2.05665
1315625969798,1.99879
1315626029798,2.00274
1315626089798,1.99049
1315626149798,2.01578
1315626209798,1.97783
1315626269798,2.00010
1315626329798,1.98568
1315626389798,1.99343
1315626449798,1.99273
1315626509798,2.00250
1315626569798,1.99271
1315626629798,1.99648
1315626689798,1.98255
1315626749798,2.00333
1315626809798,2.00652
1315626869798,2.04485
1315626929798,2.00282
1315626989798,2.01172
1315627049798,1.99190
1315627109798,1.99419
1315627169798,2.00665
1315627229810,2.00538
1315627289810,1.99566
1315627349810,2.00223
1315627409810,1.99801
1315627469810,1.98515
1315627529810,1.99024
1315627589810,1.99034
1315627649810,1.99125
1315627709810,2.01516
1315627769810,2.00575
1315627829810,2.00304
1315627889810,1.99690
1315627949810,1.99509
1315628009810,1.99306
1315628069810,1.99038
1315628129810,1.99820
1315628189810,2.00654
1315628249810,2.00055
1315628309810,2.00378
1315628369810,2.00960
1315628429810,2.00336
1315628489810,1.98953
1315628549810,2.00243
1315628609810,1.99037
1315628669810,1.99421
1315628729810,2.00095
1315628789810,2.00477
1315628849810,2.00173
1315628909810,2.00492
1315628969810,2.00511
1315629029810,2.00995
1315629089810,1.99582
1315629149810,2.00585
1315629209810,1.99869
1315629269810,1.98667
1315629329810,2.01036
1315629389810,1.99673
1315629449810,2.00868
1315629509810,1.98943
1315629569810,2.00647
1315629629810,2.00419
1315629689810,2.00052
1315629749810,1.99620
1315629809810,2.00855
1315629869810,2.02395
1315629929810,2.00439
1315629989810,1.98498
1315630049810,1.99043
1315630109810,2.00476
1315630169810,2.33013
1315630229810,1.98240
1315630289810,2.00145
1315630349810,2.00469
1315630409810,2.00843
1315630469810,2.01883
1315630529810,2.00861
1315630589810,2.00798
1315630649810,2.03080
1315630709810,2.01323
1315630769810,1.98592
1315630829822,2.02313
1315630889822,2.00542
1315630949822,2.01571
1315631009822,2.00003
1315631069822,2.00336
1315631129822,2.00278
1315631189822,2.01286
1315631249822,2.01512
1315631309822,2.00337
1315631369822,2.00535
1315631429822,2.00596
1315631489822,2.01163
1315631549822,2.00481
1315631609822,2.01468
1315631669822,1.99129
1315631729822,2.01415
1315631789822,2.00199
1315631849822,2.00326
1315631909822,2.01144
1315631969822,1.99772
1315632029822,2.02049
1315632089822,1.99645
1315632149822,2.01935
1315632209822,2.01665
1315632269822,2.00623
1315632329822,1.98926
1315632389822,2.00300
1315632449822,1.98903
1315632509822,2.02406
1315632569822,2.01498
1315632629822,2.02057
1315632689822,2.00806
1315632749822,2.01332
1315632809822,2.00881
1315632869822,2.01261
1315632929822,2.01802
1315632989822,2.01703
1315633049822,2.01753
1315633109822,2.01298
1315633169822,2.01848
1315633229822,1.99594
1315633289822,2.01056
1315633349822,2.03406
1315633409822,2.01496
1315633469822,2.02543
1315633529822,2.01557
1315633589822,2.02625
1315633649822,2.00995
1315633709822,2.02883
1315633769822,2.03770
1315633829822,2.03402
1315633889822,2.01946
1315633949822,2.01801
1315634009822,2.01946
1315634069822,2.01128
1315634129822,2.03188
1315634189822,2.02963
1315634249822,2.02896
1315634309822,2.03125
1315634369822,2.04126
1315634429834,2.02324
1315634489834,2.01993
1315634549834,1.99133
1315634609834,2.02697
1315634669834,2.01782
1315634729834,2.02149
1315634789834,2.03435
1315634849834,2.02904
1315634909834,2.02622
1315634969834,2.01824
1315635029834,2.02318
1315635089834,2.03501
1315635149834,2.02334
1315635209834,2.01329
1315635269834,2.01606
1315635329834,2.04063
1315635389834,2.03744
1315635449834,2.02584
1315635509834,2.03533
1315635569834,2.02895
1315635629834,2.02331
1315635689834,2.02380
1315635749834,2.02777
1315635809834,2.02239
1315635869834,2.03443
1315635929834,2.03445
1315635989834,2.04448
1315636049834,2.03711
1315636109834,2.03985
1315636169834,2.03109
1315636229834,2.03821
1315636289834,2.03167
1315636349834,2.05429
1315636409834,2.03256
1315636469834,2.03710
1315636529834,2.04112
1315636589834,2.02783
1315636649834,2.03984
1315636709834,2.02168
1315636769834,2.03558
1315636829834,2.03311
1315636889834,2.02617
1315636949834,2.02157
1315637009834,2.03481
1315637069834,2.02761
1315637129834,2.03640
1315637189834,2.04000
1315637249834,2.03906
1315637309834,2.03973
1315637369834,2.02188
1315637429834,2.03625
1315637489834,2.05952
1315637549834,2.05098
1315637609834,2.05445
1315637669834,2.02856
1315637729834,2.05329
1315637789834,2.03759
1315637849834,2.02033
1315637909834,2.04004
1315637969834,2.03266
1315638029846,2.04077
1315638089846,2.03499
1315638149846,2.02000
1315638209846,2.02616
1315638269846,2.02057
1315638329846,2.04022
1315638389846,2.02612
1315638449846,2.03833
1315638509846,2.03619
1315638569846,2.04603
1315638629846,2.03124
1315638689846,2.02806
1315638749846,2.05248
1315638809846,2.05095
1315638869846,2.04478
1315638929846,2.04085
1315638989846,2.03263
1315639049846,2.03648
1315639109846,2.04838
1315639169846,2.05137
1315639229846,2.04466
1315639289846,2.05400
1315639349846,2.03839
1315639409846,2.06298
1315639469846,2.05833
1315639529846,2.05052
1315639589846,2.05827
1315639649846,2.06922
1315639709846,2.07700
1315639769846,2.07620
1315639829846,2.11149
1315639889846,2.08329
1315639949846,2.21156
1315640009846,2.15015
1315640069846,2.12098
1315640129846,2.10476
1315640189846,2.11209
1315640249846,2.11409
1315640309846,2.11801
1315640369846,2.11142
1315640429846,2.12464
1315640489846,2.11695
1315640549846,2.11023
1315640609846,2.10705
1315640669846,2.12275
1315640729846,2.13079
1315640789846,2.13427
1315640849846,2.14385
1315640909846,2.14051
1315640969846,2.13660
1315641029846,2.14226
1315641089846,2.13466
1315641149846,2.13626
1315641209846,2.15034
1315641269846,2.15894
1315641329846,2.15059
1315641389846,2.13596
1315641449846,2.13383
1315641509846,2.14018
1315641569846,2.13068
1315641629858,2.15124
1315641689858,2.12453
1315641749858,2.12060
1315641809858,2.13632
1315641869858,2.14902
1315641929858,2.14536
1315641989858,2.14181
1315642049858,2.16214
1315642109858,2.15024
1315642169858,2.13526
1315642229858,2.16098
1315642289858,2.15045
1315642349858,2.16719
1315642409858,2.15108
1315642469858,2.12142
1315642529858,2.15796
1315642589858,2.14466
1315642649858,2.15571
1315642709858,2.16525
1315642769858,2.15112
1315642829858,2.15707
1315642889858,2.15889
1315642949858,2.14679
1315643009858,2.14687
1315643069858,2.14066
1315643129858,2.13308
1315643189858,2.10645
1315643249858,2.10563
1315643309858,2.10543
1315643369858,2.10495
1315643429858,2.11651
1315643489858,2.09179
1315643549858,2.12724
1315643609858,2.11210
1315643669858,2.08459
1315643729858,2.09089
1315643789858,2.10533
1315643849858,2.08340
1315643909858,2.10635
1315643969858,2.09404
1315644029858,2.10388
1315644089858,2.09021
1315644149858,2.09958
1315644209858,2.09757
1315644269858,2.07786
1315644329858,2.09200
1315644389858,2.07974
1315644449858,2.08021
1315644509858,2.08443
1315644569858,2.08458
1315644629858,2.09013
1315644689858,2.09245
1315644749858,2.08427
1315644809858,2.08976
1315644869858,2.08525
1315644929858,2.08542
1315644989858,2.09168
1315645049858,2.08998
1315645109858,2.08717
1315645169858,2.08292
1315645229870,2.06652
1315645289870,2.09675
1315645349870,2.08807
1315645409870,2.06107
1315645469870,2.07861
1315645529870,2.09366
1315645589870,2.08323
1315645649870,2.08894
1315645709870,2.06809
1315645769870,2.08145
1315645829870,2.06308
1315645889870,2.08853
1315645949870,2.08157
1315646009870,2.05571
1315646069870,2.07063
1315646129870,2.06999
1315646189870,2.07999
1315646249870,2.08664
1315646309870,2.07889
1315646369870,2.06699
1315646429870,2.08883
1315646489870,2.09085
1315646549870,2.08314
1315646609870,2.08040
1315646669870,2.07156
1315646729870,2.08439
1315646789870,2.08136
1315646849870,2.08837
1315646909870,2.08682
1315646969870,2.06220
1315647029870,2.08554
1315647089870,2.07796
1315647149870,2.08789
1315647209870,2.06564
1315647269870,2.08988
1315647329870,2.07308
1315647389870,2.07075
1315647449870,2.09474
1315647509870,2.09106
1315647569870,2.07820
1315647629870,2.08378
1315647689870,2.08729
1315647749870,2.08543
1315647809870,2.07742
1315647869870,2.07636
1315647929870,2.08416
1315647989870,2.08408
1315648049870,2.08176
1315648109870,2.09818
1315648169870,2.07263
1315648229870,2.07905
1315648289870,2.08772
1315648349870,2.08604
1315648409870,2.07109
1315648469870,2.06246
1315648529870,2.08558
1315648589870,2.07414
1315648649870,2.08283
1315648709870,2.09478
1315648769870,2.07001
1315648829883,2.08183
1315648889883,2.06686
1315648949883,2.07811
1315649009883,2.06867
1315649069883,2.05578
1315649129883,2.08314
1315649189883,2.08491
1315649249883,2.08013
1315649309883,2.07294
1315649369883,2.06071
1315649429883,2.07200
1315649489883,2.07601
1315649549883,2.07701
1315649609883,2.06744
1315649669883,2.08277
1315649729883,2.06631
1315649789883,2.07893
1315649849883,2.06718
1315649909883,2.07242
1315649969883,2.05535
1315650029883,2.07676
1315650089883,2.04599
1315650149883,2.06447
1315650209883,2.06931
1315650269883,2.06951
1315650329883,2.06981
1315650389883,2.06667
1315650449883,2.05798
1315650509883,2.05670
1315650569883,2.05876
1315650629883,2.05157
1315650689883,2.06023
1315650749883,2.08121
1315650809883,2.06890
1315650869883,2.08596
1315650929883,2.09298
1315650989883,2.05076
1315651049883,2.05356
1315651109883,2.04485
1315651169883,2.07661
1315651229883,2.06850
1315651289883,2.06728
1315651349883,2.06495
1315651409883,2.05970
1315651469883,2.06767
1315651529883,2.07099
1315651589883,2.06958
1315651649883,2.06342
1315651709883,2.06805
1315651769883,2.07369
1315651829883,2.07574
1315651889883,2.06211
1315651949883,2.09589
1315652009883,2.06686
1315652069883,2.07855
1315652129883,2.06688
1315652189883,2.06679
1315652249883,2.08674
1315652309883,2.06679
1315652369883,2.09793
1315652429895,2.09582
1315652489895,2.06421
1315652549895,2.09216
1315652609895,2.07610
1315652669895,2.07889
1315652729895,2.07263
1315652789895,2.09230
1315652849895,2.07006
1315652909895,2.08753
1315652969895,2.08361
1315653029895,2.11504
1315653089895,2.05526
1315653629895,2.08624
1315653689895,2.07253
1315653749895,2.08709
1315653809895,2.08803
1315653869895,2.07933
1315653929895,2.08371
1315653989895,2.06764
1315654049895,2.05620
1315654109895,2.07965
1315654169895,2.08691
1315654229895,2.07851
1315654289895,2.08135
1315654349895,2.06936
1315654409895,2.06931
1315654469895,2.07913
1315654529895,2.07892
1315654589895,2.06511
1315654649895,2.08378
1315654709895,2.07952
1315654769895,2.08007
1315654829895,2.07255
1315654889895,2.06003
1315654949895,2.08797
1315655009895,2.07703
1315655069895,2.05858
1315655129895,2.07075
1315655189895,2.07434
1315655249895,2.06544
1315655309895,2.07394
1315655369895,2.06372
1315655429895,2.08122
1315655489895,2.08718
1315655549895,2.07246
1315655609895,2.08947
1315655669895,2.08217
1315655729895,2.07329
1315655789895,2.07976
1315655849895,2.07455
1315655909895,2.07117
1315655969895,2.08364
1315656029908,2.07601
1315656089908,2.08005
1315656149908,2.06475
1315656209908,2.09467
1315656269908,2.07667
1315656329908,2.07755
1315656389908,2.06422
1315656449908,2.07353
1315656509908,2.06843
1315656569908,2.07961
1315656629908,2.07600
1315656689908,2.06111
1315656749908,2.07254
1315656809908,2.09128
1315656869908,2.09626
1315656929908,2.08435
1315656989908,2.08518
1315657049908,2.08113
1315657109908,2.09229
1315657169908,2.08574
1315657229908,2.10348
1315657289908,2.08781
1315657349908,2.08055
1315657409908,2.09113
1315657469908,2.08551
1315657529908,2.07371
1315657589908,2.07736
1315657649908,2.09510
1315657709908,2.08710
1315657769908,2.08818
1315657829908,2.08372
1315657889908,2.10632
1315657949908,2.11062
1315658009908,2.11227
1315658069908,2.09889
1315658129908,2.09714
1315658189908,2.10876
1315658249908,2.09934
1315658309908,2.10042
1315658369908,2.09067
1315658429908,2.10437
1315658489908,2.11172
1315658549908,2.11597
1315658609908,2.09610
1315658669908,2.08860
1315658729908,2.09675
1315658789908,2.12946
1315658849908,2.10124
1315658909908,2.12188
1315658969908,2.09245
1315659029908,2.12247
1315659089908,2.10149
1315659149908,2.11950
1315659209908,2.12033
1315659269908,2.11724
1315659329908,2.10985
1315659389908,2.11025
1315659449908,2.10290
1315659509908,2.11064
1315659569908,2.12589
1315659629921,2.12461
1315659689921,2.10975
1315659749921,2.11479
1315659809921,2.12187
1315659869921,2.11907
1315659929921,2.11888
1315659989921,2.11156
1315660049921,2.11457
1315660109921,2.11273
1315660169921,2.14127
1315660229921,2.10043
1315660289921,2.12325
1315660349921,2.10872
1315660409921,2.11748
1315660469921,2.10938
1315660529921,2.11619
1315660589921,2.11560
1315660649921,2.12045
1315660709921,2.02375
1315660769921,2.11253
1315660829921,2.09517
1315660889921,2.10621
1315660949921,2.10849
1315661009921,2.11213
1315661069921,2.10672
1315661129921,2.10809
1315661189921,2.12534
1315661249921,2.09438
1315661309921,2.10332
1315661369921,2.12568
1315661429921,2.11658
1315661489921,2.11216
1315661549921,2.11385
1315661609921,2.10925
1315661669921,2.10931
1315661729921,2.10623
1315661789921,2.11318
1315661849921,2.11272
1315661909921,2.11573
1315661969921,2.11543
1315662029921,2.11565
1315662089921,2.11070
1315662149921,2.09622
1315662209921,2.11900
1315662269921,2.11655
1315662329921,2.11193
1315662389921,2.15573
1315662449921,2.13821
1315662509921,2.12560
1315662569921,2.11782
1315662629921,2.11169
1315662689921,2.11373
1315662749921,2.10516
1315662809921,2.12168
1315662869921,2.12201
1315662929921,2.11066
1315662989921,2.10006
1315663049921,2.12319
1315663109921,2.11425
1315663169921,2.12539
1315663229934,2.09846
1315663289934,2.11513
1315663349934,2.10352
1315663409934,2.10720
1315663469934,2.09973
1315663529934,2.11105
1315663589934,2.10510
1315663649934,2.11016
1315663709934,2.10193
1315663769934,2.11716
1315663829934,2.12598
1315663889934,2.11431
1315663949934,2.11869
1315664009934,2.10978
1315664069934,2.12724
1315664129934,2.09805
1315664189934,2.09406
1315664249934,2.11203
1315664309934,2.10848
1315664369934,2.11868
1315664429934,2.09119
1315664489934,2.09843
1315664549934,2.10164
1315664609934,2.11374
1315664669934,2.09480
1315664729934,2.11572
1315664789934,2.11432
1315664849934,2.10776
1315664909934,2.10210
1315664969934,2.10909
1315665029934,2.13385
1315665089934,2.09379
1315665149934,2.09628
1315665209934,2.10287
1315665269934,2.09806
1315665329934,2.11457
1315665389934,2.10972
1315665449934,2.11426
1315665509934,2.11950
1315665569934,2.09744
1315665629934,2.10784
1315665689934,2.10079
1315665749934,2.11032
1315665809934,2.08632
1315665869934,2.10188
1315665929934,2.11523
1315665989934,2.10552
1315666049934,2.11826
1315666109934,2.09930
1315666169934,2.11225
1315666229934,2.12313
1315666289934,2.09785
1315666349934,2.18479
1315666409934,2.09535
1315666469934,2.11019
1315666529934,2.10526
1315666589934,2.10802
1315666649934,2.10044
1315666709934,2.09454
1315666769934,2.11291
1315666829948,2.09959
1315666889948,2.11186
1315666949948,2.10032
1315667009948,2.10339
1315667069948,2.11050
1315667129947,2.09612
1315667189947,2.09971
1315667249947,2.11078
1315667309947,2.09644
1315667369948,2.10916
1315667429948,2.11554
1315667489948,2.10888
1315667549948,2.10422
1315667609948,2.10042
1315667669948,2.09228
1315667729948,2.10653
1315667789948,2.08532
1315667849948,2.10464
1315667909948,2.10534
1315667969948,2.10730
1315668029948,2.11232
1315668089948,2.10935
1315668149948,2.09880
1315668209948,2.11665
1315668269948,2.11721
1315668329948,2.10998
1315668389948,2.10600
1315668449948,2.10424
1315668509947,2.12483
1315668569947,2.11278
1315668629947,2.09669
1315668689947,2.12621
1315668749948,2.10680
1315668809948,2.09304
1315668869948,2.10246
1315668929948,2.10897
1315668989948,2.08318
1315669049948,2.10001
1315669109948,2.09647
1315669169948,2.10907
1315669229948,2.10819
1315669289948,2.10269
1315669349948,2.10377
1315669409948,2.10692
1315669469948,2.09844
1315669529948,2.11133
1315669589948,2.10463
1315669649948,2.09438
1315669709948,2.09581
1315669769948,2.10400
1315669829947,2.09213
1315669889947,2.09139
1315669949947,2.09616
1315670009947,2.10566
1315670069948,2.09281
1315670129948,2.10891
1315670189948,2.10814
1315670249948,2.08703
1315670309948,2.09575
1315670369948,2.10365
1315670429961,2.09550
1315670489961,2.10234
1315670549961,2.09753
1315670609961,2.10690
1315670669961,2.08794
1315670729961,2.07999
1315670789961,2.08713
1315670849961,2.10799
1315670909961,2.08391
1315670969961,2.09751
1315671029961,2.09802
1315671089961,2.08988
1315671149961,2.08414
1315671209961,2.10130
1315671269961,2.12471
1315671329961,2.08579
1315671389961,2.08707
1315671449961,2.08686
1315671509961,2.09713
1315671569961,2.08199
1315671629961,2.10345
1315671689961,2.13816
1315671749961,2.09549
1315671809961,2.08989
1315671869961,2.10084
1315671929961,2.08398
1315671989961,2.06703
1315672049961,2.08899
1315672109961,2.07892
1315672169961,2.10019
1315672229961,2.09656
1315672289961,2.08751
1315672349961,2.08917
1315672409961,2.10304
1315672469961,2.09686
1315672529961,2.09251
1315672589961,2.07326
1315672649961,2.08649
1315672709961,2.01378
1315672769961,2.08085
1315672829961,2.07926
1315672889961,2.10081
1315672949961,2.08704
1315673009961,2.07763
1315673069961,2.06909
1315673129961,2.08471
1315673189961,2.08605
1315673249961,2.06658
1315673309961,2.08098
1315673369961,2.06976
1315673429961,2.07981
1315673489961,2.08724
1315673549961,2.06020
1315673609961,2.06293
1315673669961,2.08156
1315673729961,2.07279
1315673789961,2.06365
1315673849961,2.08124
1315673909961,2.07096
1315673969961,2.05924
1315674029975,2.07131
1315674089975,2.07315
1315674149975,2.07561
1315674209975,2.08509
1315674269975,2.05825
1315674329975,2.08539
1315674389975,2.09058
1315674449975,2.07791
1315674509975,2.08015
1315674569975,2.08070
1315674629975,2.06928
1315674689975,2.08580
1315674749975,2.07200
1315674809975,2.07065
1315674869975,2.07553
1315674929975,2.08194
1315674989975,2.25998
1315675049975,2.06274
1315675109975,2.08716
1315675169975,2.08775
1315675229975,2.08029
1315675289975,2.07672
1315675349975,2.08192
1315675409975,2.09315
1315675469975,2.11095
1315675529975,2.09500
1315675589975,2.09174
1315675649975,2.09416
1315675709975,2.08566
1315675769975,2.08781
1315675829975,2.09128
1315675889975,2.10031
1315675949975,2.11232
1315676009975,2.12007
1315676069975,2.09432
1315676129975,2.10582
1315676189975,2.11256
1315676249975,2.11240
1315676309975,2.11024
1315676369975,2.14585
1315676429975,2.11422
1315676489975,2.10638
1315676549975,2.10644
1315676609975,2.10680
1315676669975,2.10171
1315676729975,2.09881
1315676789975,2.09794
1315676849975,2.06838
1315676909975,2.10771
1315676969975,2.10691
1315677029975,2.10170
1315677089975,2.08774
1315677149975,2.09183
1315677209975,2.08319
1315677269975,2.09828
1315677329975,2.09581
1315677389975,2.09322
1315677449975,2.08666
1315677509975,2.07335
1315677569975,2.08343
1315677629989,2.09146
1315677689989,2.08392
1315677749989,2.08492
1315677809989,2.08805
1315677869989,2.05312
1315677929989,2.07870
1315677989989,2.07976
1315678049989,2.08389
1315678109989,2.07568
1315678169989,2.09605
1315678229989,2.07367
1315678289989,2.08823
1315678349989,2.08121
1315678409989,2.07446
1315678469989,2.09736
1315678529989,2.07502
1315678589989,2.08176
1315678649989,2.09446